Year,Month,Day,Hour,Minute,Value (Times are PST for temperature in C)
2008,12,03,00,00,7.00
2008,12,03,00,01,7.00
2008,12,03,00,02,7.00
2008,12,03,00,03,7.00
2008,12,03,00,04,7.00
2008,12,03,00,05,7.00
2008,12,03,00,06,7.00
2008,12,03,00,13,7.00
2008,12,03,00,14,7.00
2008,12,03,00,15,7.00
2008,12,03,00,16,7.00
2008,12,03,13,02,7.30
2008,12,03,13,03,7.30
2008,12,03,13,04,7.30
2008,12,03,13,05,7.30
2008,12,03,13,06,7.30
2008,12,03,13,07,7.30
2008,12,03,13,08,7.30
2008,12,03,13,09,7.40
2008,12,03,13,10,7.50
2008,12,03,13,11,7.60
2008,12,03,13,12,7.60
2008,12,03,13,13,7.70
2008,12,03,13,14,7.80
2008,12,03,13,15,7.80
2008,12,03,13,16,7.80
2008,12,03,13,17,7.80
2008,12,03,13,18,7.80
2008,12,03,13,19,7.80
2008,12,03,13,20,7.80
2008,12,03,13,21,7.80
2008,12,03,13,22,7.80
2008,12,03,13,23,7.80
2008,12,03,13,24,7.80
2008,12,03,13,25,7.80
2008,12,03,13,26,7.80
2008,12,03,13,27,7.80
2008,12,03,13,28,7.80
2008,12,03,13,29,7.70
2008,12,03,13,30,7.70
2008,12,03,13,31,7.60
2008,12,03,13,32,7.60
2008,12,03,13,33,7.50
2008,12,03,13,34,7.50
2008,12,03,13,35,7.40
2008,12,03,13,36,7.40
2008,12,03,13,37,7.30
2008,12,03,13,38,7.30
2008,12,03,13,39,7.30
2008,12,03,13,40,7.30
2008,12,03,13,41,7.30
2008,12,03,13,42,7.30
2008,12,03,13,43,7.30
2008,12,03,13,44,7.30
2008,12,03,13,45,7.30
2008,12,03,13,46,7.30
2008,12,03,13,47,7.30
2008,12,03,13,48,7.30
2008,12,03,13,49,7.30
2008,12,03,13,50,7.30
2008,12,03,13,51,7.20
2008,12,03,13,52,7.20
2008,12,03,13,53,7.20
2008,12,03,13,54,7.20
2008,12,03,13,55,7.10
2008,12,03,13,56,7.10
2008,12,03,13,57,7.20
2008,12,03,13,58,7.20
2008,12,03,13,59,7.20
2008,12,03,14,00,7.20
2008,12,03,14,01,7.20
2008,12,03,14,02,7.20
2008,12,03,14,03,7.20
2008,12,03,14,04,7.20
2008,12,03,14,05,7.20
2008,12,03,14,06,7.30
2008,12,03,14,07,7.30
2008,12,03,14,08,7.30
2008,12,03,14,09,7.30
2008,12,03,14,10,7.40
2008,12,03,14,11,7.40
2008,12,03,14,12,7.50
2008,12,03,14,13,7.50
2008,12,03,14,14,7.50
2008,12,03,14,15,7.60
2008,12,03,14,16,7.60
2008,12,03,14,17,7.60
2008,12,03,14,18,7.70
2008,12,03,14,19,7.70
2008,12,03,14,20,7.70
2008,12,03,14,21,7.80
2008,12,03,14,22,7.80
2008,12,03,14,23,7.80
2008,12,03,14,24,7.90
2008,12,03,14,25,7.90
2008,12,03,14,26,8.00
2008,12,03,14,27,8.00
2008,12,03,14,28,8.00
2008,12,03,14,29,7.90
2008,12,03,14,30,7.90
2008,12,03,14,31,7.90
2008,12,03,14,32,7.90
2008,12,03,14,33,7.90
2008,12,03,14,34,7.90
2008,12,03,14,35,7.90
2008,12,03,14,36,7.90
2008,12,03,14,37,7.90
2008,12,03,14,38,7.90
2008,12,03,14,39,7.90
2008,12,03,14,40,7.90
2008,12,03,14,41,7.90
2008,12,03,14,42,7.90
2008,12,03,14,43,7.90
2008,12,03,14,44,7.90
2008,12,03,14,45,7.90
2008,12,03,14,46,8.00
2008,12,03,14,47,8.00
2008,12,03,14,48,8.00
2008,12,03,14,49,8.00
2008,12,03,14,50,8.00
2008,12,03,14,51,7.90
2008,12,03,14,52,7.90
2008,12,03,14,53,7.90
2008,12,03,14,54,7.90
2008,12,03,14,55,7.90
2008,12,03,14,56,7.90
2008,12,03,14,57,7.90
2008,12,03,14,58,7.90
2008,12,03,14,59,7.90
2008,12,03,15,00,7.80
2008,12,03,15,01,7.80
2008,12,03,15,02,7.80
2008,12,03,15,03,7.90
2008,12,03,15,04,7.90
2008,12,03,15,05,7.90
2008,12,03,15,06,8.00
2008,12,03,15,07,8.00
2008,12,03,15,08,8.00
2008,12,03,15,09,8.00
2008,12,03,15,10,8.10
2008,12,03,15,11,8.10
2008,12,03,15,12,8.10
2008,12,03,15,13,8.10
2008,12,03,15,14,8.10
2008,12,03,15,15,8.10
2008,12,03,15,16,8.10
2008,12,03,15,17,8.10
2008,12,03,15,18,8.00
2008,12,03,15,19,8.00
2008,12,03,15,20,8.00
2008,12,03,15,21,7.90
2008,12,03,15,22,7.90
2008,12,03,15,23,7.80
2008,12,03,15,24,7.80
2008,12,03,15,25,7.80
2008,12,03,15,26,7.80
2008,12,03,15,27,7.80
2008,12,03,15,28,7.80
2008,12,03,15,29,7.70
2008,12,03,15,30,7.70
2008,12,03,15,31,7.70
2008,12,03,15,32,7.70
2008,12,03,15,33,7.70
2008,12,03,15,34,7.70
2008,12,03,15,35,7.70
2008,12,03,15,36,7.70
2008,12,03,15,37,7.70
2008,12,03,15,38,7.70
2008,12,03,15,39,7.70
2008,12,03,15,40,7.70
2008,12,03,15,41,7.70
2008,12,03,15,42,7.60
2008,12,03,15,43,7.60
2008,12,03,15,44,7.60
2008,12,03,15,45,7.60
2008,12,03,15,46,7.50
2008,12,03,15,47,7.50
2008,12,03,15,48,7.50
2008,12,03,15,49,7.50
2008,12,03,15,50,7.40
2008,12,03,15,51,7.40
2008,12,03,15,52,7.40
2008,12,03,15,53,7.40
2008,12,03,15,54,7.40
2008,12,03,15,55,7.30
2008,12,03,15,56,7.30
2008,12,03,15,57,7.30
2008,12,03,15,58,7.30
2008,12,03,15,59,7.30
2008,12,03,16,00,7.30
2008,12,03,16,01,7.30
2008,12,03,16,02,7.30
2008,12,03,16,03,7.30
2008,12,03,16,04,7.30
2008,12,03,16,05,7.30
2008,12,03,16,06,7.30
2008,12,03,16,07,7.30
2008,12,03,16,08,7.30
2008,12,03,16,09,7.30
2008,12,03,16,10,7.30
2008,12,03,16,11,7.20
2008,12,03,16,12,7.20
2008,12,03,16,13,7.20
2008,12,03,16,14,7.20
2008,12,03,16,15,7.20
2008,12,03,16,16,7.20
2008,12,03,16,17,7.20
2008,12,03,16,18,7.20
2008,12,03,16,19,7.10
2008,12,03,16,20,7.10
2008,12,03,16,21,7.10
2008,12,03,16,22,7.10
2008,12,03,16,23,7.10
2008,12,03,16,24,7.10
2008,12,03,16,25,7.00
2008,12,03,16,26,7.00
2008,12,03,16,27,7.00
2008,12,03,16,28,7.00
2008,12,03,16,29,7.00
2008,12,03,16,30,7.00
2008,12,03,16,31,7.00
2008,12,03,16,32,7.00
2008,12,03,16,33,6.90
2008,12,03,16,34,6.90
2008,12,03,16,35,6.90
2008,12,03,16,36,6.90
2008,12,03,16,37,6.90
2008,12,03,16,38,6.90
2008,12,03,16,39,6.90
2008,12,03,16,40,6.90
2008,12,03,16,41,6.90
2008,12,03,16,42,6.90
2008,12,03,16,43,6.80
2008,12,03,16,44,6.80
2008,12,03,16,45,6.80
2008,12,03,16,46,6.80
2008,12,03,16,47,6.80
2008,12,03,16,48,6.80
2008,12,03,16,49,6.80
2008,12,03,16,50,6.80
2008,12,03,16,51,6.80
2008,12,03,16,52,6.80
2008,12,03,16,53,6.80
2008,12,03,16,54,6.80
2008,12,03,16,55,6.80
2008,12,03,16,56,6.70
2008,12,03,16,57,6.70
2008,12,03,16,58,6.70
2008,12,03,16,59,6.70
2008,12,03,17,00,6.60
2008,12,03,17,01,6.60
2008,12,03,17,02,6.60
2008,12,03,17,03,6.60
2008,12,03,17,04,6.60
2008,12,03,17,05,6.60
2008,12,03,17,06,6.50
2008,12,03,17,07,6.40
2008,12,03,17,08,6.40
2008,12,03,17,09,6.40
2008,12,03,17,10,6.40
2008,12,03,17,11,6.40
2008,12,03,17,12,6.40
2008,12,03,17,13,6.30
2008,12,03,17,14,6.30
2008,12,03,17,15,6.30
2008,12,03,17,16,6.30
2008,12,03,17,17,6.20
2008,12,03,17,18,6.20
2008,12,03,17,19,6.20
2008,12,03,17,20,6.20
2008,12,03,17,21,6.20
2008,12,03,17,22,6.20
2008,12,03,17,23,6.20
2008,12,03,17,24,6.20
2008,12,03,17,25,6.20
2008,12,03,17,26,6.10
2008,12,03,17,27,6.10
2008,12,03,17,28,6.10
2008,12,03,17,29,6.10
2008,12,03,17,30,6.10
2008,12,03,17,31,6.10
2008,12,03,17,32,6.10
2008,12,03,17,33,6.10
2008,12,03,17,34,6.00
2008,12,03,17,35,6.00
2008,12,03,17,36,6.00
2008,12,03,17,37,6.00
2008,12,03,17,38,6.00
2008,12,03,17,39,6.00
2008,12,03,17,40,6.00
2008,12,03,17,41,6.00
2008,12,03,17,42,5.90
2008,12,03,17,43,5.90
2008,12,03,17,44,5.90
2008,12,03,17,45,5.90
2008,12,03,17,46,5.90
2008,12,03,17,47,5.90
2008,12,03,17,48,5.90
2008,12,03,17,49,5.90
2008,12,03,17,50,5.90
2008,12,03,17,51,5.90
2008,12,03,17,52,5.90
2008,12,03,17,53,5.90
2008,12,03,17,54,5.90
2008,12,03,17,55,5.80
2008,12,03,17,56,5.80
2008,12,03,17,57,5.80
2008,12,03,17,58,5.80
2008,12,03,17,59,5.80
2008,12,03,18,00,5.80
2008,12,03,18,01,5.80
2008,12,03,18,02,5.80
2008,12,03,18,03,5.80
2008,12,03,18,04,5.80
2008,12,03,18,05,5.80
2008,12,03,18,06,5.70
2008,12,03,18,07,5.70
2008,12,03,18,08,5.70
2008,12,03,18,09,5.70
2008,12,03,18,10,5.70
2008,12,03,18,11,5.70
2008,12,03,18,12,5.70
2008,12,03,18,13,5.70
2008,12,03,18,14,5.70
2008,12,03,18,15,5.70
2008,12,03,18,16,5.60
2008,12,03,18,17,5.60
2008,12,03,18,18,5.60
2008,12,03,18,19,5.60
2008,12,03,18,20,5.50
2008,12,03,18,21,5.50
2008,12,03,18,22,5.50
2008,12,03,18,23,5.50
2008,12,03,18,24,5.40
2008,12,03,18,25,5.40
2008,12,03,18,26,5.40
2008,12,03,18,27,5.30
2008,12,03,18,28,5.30
2008,12,03,18,29,5.30
2008,12,03,18,30,5.30
2008,12,03,18,31,5.30
2008,12,03,18,32,5.30
2008,12,03,18,33,5.30
2008,12,03,18,34,5.20
2008,12,03,18,35,5.20
2008,12,03,18,36,5.10
2008,12,03,18,37,5.10
2008,12,03,18,38,5.10
2008,12,03,18,39,5.10
2008,12,03,18,40,5.10
2008,12,03,18,41,5.10
2008,12,03,18,42,5.10
2008,12,03,18,43,5.10
2008,12,03,18,44,5.10
2008,12,03,18,45,5.10
2008,12,03,18,46,5.00
2008,12,03,18,47,4.90
2008,12,03,18,48,4.90
2008,12,03,18,49,4.90
2008,12,03,18,50,4.90
2008,12,03,18,51,4.90
2008,12,03,18,52,4.90
2008,12,03,18,53,4.90
2008,12,03,18,54,4.90
2008,12,03,18,55,4.90
2008,12,03,18,56,4.80
2008,12,03,18,57,4.80
2008,12,03,18,58,4.80
2008,12,03,18,59,4.70
2008,12,03,19,00,4.70
2008,12,03,19,01,4.60
2008,12,03,19,02,4.60
2008,12,03,19,03,4.60
2008,12,03,19,04,4.60
2008,12,03,19,05,4.50
2008,12,03,19,06,4.50
2008,12,03,19,07,4.50
2008,12,03,19,08,4.40
2008,12,03,19,09,4.40
2008,12,03,19,10,4.40
2008,12,03,19,11,4.40
2008,12,03,19,12,4.30
2008,12,03,19,13,4.30
2008,12,03,19,14,4.30
2008,12,03,19,15,4.30
2008,12,03,19,16,4.30
2008,12,03,19,17,4.30
2008,12,03,19,18,4.40
2008,12,03,19,19,4.40
2008,12,03,19,20,4.40
2008,12,03,19,21,4.50
2008,12,03,19,22,4.50
2008,12,03,19,23,4.40
2008,12,03,19,24,4.40
2008,12,03,19,25,4.40
2008,12,03,19,26,4.50
2008,12,03,19,27,4.50
2008,12,03,19,28,4.50
2008,12,03,19,29,4.50
2008,12,03,19,30,4.50
2008,12,03,19,31,4.50
2008,12,03,19,32,4.50
2008,12,03,19,33,4.50
2008,12,03,19,34,4.50
2008,12,03,19,35,4.50
2008,12,03,19,36,4.40
2008,12,03,19,37,4.40
2008,12,03,19,38,4.40
2008,12,03,19,39,4.40
2008,12,03,19,40,4.40
2008,12,03,19,41,4.40
2008,12,03,19,42,4.30
2008,12,03,19,43,4.30
2008,12,03,19,44,4.30
2008,12,03,19,45,4.30
2008,12,03,19,46,4.30
2008,12,03,19,47,4.20
2008,12,03,19,48,4.20
2008,12,03,19,49,4.20
2008,12,03,19,50,4.20
2008,12,03,19,51,4.20
2008,12,03,19,52,4.20
2008,12,03,19,53,4.20
2008,12,03,19,54,4.20
2008,12,03,19,55,4.20
2008,12,03,19,56,4.20
2008,12,03,19,57,4.20
2008,12,03,19,58,4.20
2008,12,03,19,59,4.20
2008,12,03,20,00,4.20
2008,12,03,20,01,4.20
2008,12,03,20,02,4.20
2008,12,03,20,03,4.20
2008,12,03,20,04,4.20
2008,12,03,20,05,4.20
2008,12,03,20,06,4.20
2008,12,03,20,07,4.20
2008,12,03,20,08,4.20
2008,12,03,20,09,4.20
2008,12,03,20,10,4.20
2008,12,03,20,11,4.20
2008,12,03,20,12,4.20
2008,12,03,20,13,4.20
2008,12,03,20,14,4.20
2008,12,03,20,15,4.10
2008,12,03,20,16,4.00
2008,12,03,20,17,4.00
2008,12,03,20,18,4.00
2008,12,03,20,19,3.90
2008,12,03,20,20,3.80
2008,12,03,20,21,3.80
2008,12,03,20,22,3.80
2008,12,03,20,23,3.70
2008,12,03,20,24,3.70
2008,12,03,20,25,3.60
2008,12,03,20,26,3.60
2008,12,03,20,27,3.60
2008,12,03,20,28,3.50
2008,12,03,20,29,3.50
2008,12,03,20,30,3.50
2008,12,03,20,31,3.50
2008,12,03,20,32,3.40
2008,12,03,20,33,3.40
2008,12,03,20,34,3.40
2008,12,03,20,35,3.30
2008,12,03,20,36,3.30
2008,12,03,20,37,3.30
2008,12,03,20,38,3.30
2008,12,03,20,39,3.30
2008,12,03,20,40,3.30
2008,12,03,20,41,3.30
2008,12,03,20,42,3.30
2008,12,03,20,43,3.30
2008,12,03,20,44,3.30
2008,12,03,20,45,3.30
2008,12,03,20,46,3.20
2008,12,03,20,47,3.20
2008,12,03,20,48,3.20
2008,12,03,20,49,3.30
2008,12,03,20,50,3.30
2008,12,03,20,51,3.30
2008,12,03,20,52,3.30
2008,12,03,20,53,3.30
2008,12,03,20,54,3.30
2008,12,03,20,55,3.30
2008,12,03,20,56,3.30
2008,12,03,20,57,3.30
2008,12,03,20,58,3.40
2008,12,03,20,59,3.40
2008,12,03,21,00,3.40
2008,12,03,21,01,3.40
2008,12,03,21,02,3.40
2008,12,03,21,03,3.40
2008,12,03,21,04,3.50
2008,12,03,21,05,3.60
2008,12,03,21,06,3.70
2008,12,03,21,07,3.80
2008,12,03,21,08,4.00
2008,12,03,21,09,4.00
2008,12,03,21,10,4.00
2008,12,03,21,11,4.00
2008,12,03,21,12,4.10
2008,12,03,21,13,4.20
2008,12,03,21,14,4.20
2008,12,03,21,15,4.20
2008,12,03,21,16,4.20
2008,12,03,21,17,4.30
2008,12,03,21,18,4.30
2008,12,03,21,19,4.30
2008,12,03,21,20,4.30
2008,12,03,21,21,4.30
2008,12,03,21,22,4.30
2008,12,03,21,23,4.30
2008,12,03,21,24,4.40
2008,12,03,21,25,4.50
2008,12,03,21,26,4.50
2008,12,03,21,27,4.60
2008,12,03,21,28,4.60
2008,12,03,21,29,4.60
2008,12,03,21,30,4.70
2008,12,03,21,31,4.70
2008,12,03,21,32,4.70
2008,12,03,21,33,4.70
2008,12,03,21,34,4.70
2008,12,03,21,35,4.70
2008,12,03,21,36,4.70
2008,12,03,21,37,4.70
2008,12,03,21,38,4.80
2008,12,03,21,39,4.80
2008,12,03,21,40,4.80
2008,12,03,21,41,4.90
2008,12,03,21,42,4.90
2008,12,03,21,43,4.90
2008,12,03,21,44,4.90
2008,12,03,21,45,4.90
2008,12,03,21,46,4.90
2008,12,03,21,47,4.90
2008,12,03,21,48,4.90
2008,12,03,21,49,4.90
2008,12,03,21,50,5.00
2008,12,03,21,51,5.10
2008,12,03,21,52,5.10
2008,12,03,21,53,5.10
2008,12,03,21,54,5.10
2008,12,03,21,55,5.10
2008,12,03,21,56,5.10
2008,12,03,21,57,5.10
2008,12,03,21,58,5.10
2008,12,03,21,59,5.10
2008,12,03,22,00,5.10
2008,12,03,22,01,5.10
2008,12,03,22,02,5.10
2008,12,03,22,03,5.10
2008,12,03,22,04,5.10
2008,12,03,22,05,5.10
2008,12,03,22,06,5.10
2008,12,03,22,07,5.10
2008,12,03,22,08,5.10
2008,12,03,22,09,5.10
2008,12,03,22,10,5.10
2008,12,03,22,11,5.10
2008,12,03,22,12,5.20
2008,12,03,22,13,5.20
2008,12,03,22,14,5.20
2008,12,03,22,15,5.20
2008,12,03,22,16,5.20
2008,12,03,22,17,5.20
2008,12,03,22,18,5.20
2008,12,03,22,19,5.20
2008,12,03,22,20,5.20
2008,12,03,22,21,5.20
2008,12,03,22,22,5.20
2008,12,03,22,23,5.20
2008,12,03,22,24,5.20
2008,12,03,22,25,5.20
2008,12,03,22,26,5.20
2008,12,03,22,27,5.20
2008,12,03,22,28,5.10
2008,12,03,22,29,5.10
2008,12,03,22,30,5.10
2008,12,03,22,31,5.10
2008,12,03,22,32,5.10
2008,12,03,22,33,5.10
2008,12,03,22,34,5.10
2008,12,03,22,35,5.10
2008,12,03,22,36,5.10
2008,12,03,22,37,5.10
2008,12,03,22,38,5.10
2008,12,03,22,39,4.90
2008,12,03,22,40,4.90
2008,12,03,22,41,4.90
2008,12,03,22,42,4.90
2008,12,03,22,43,4.90
2008,12,03,22,44,4.90
2008,12,03,22,45,4.90
2008,12,03,22,46,4.90
2008,12,03,22,47,4.90
2008,12,03,22,48,5.00
2008,12,03,22,49,5.10
2008,12,03,22,50,5.10
2008,12,03,22,51,5.10
2008,12,03,22,52,5.10
2008,12,03,22,53,5.10
2008,12,03,22,54,5.10
2008,12,03,22,55,5.10
2008,12,03,22,56,5.20
2008,12,03,22,57,5.20
2008,12,03,22,58,5.20
2008,12,03,22,59,5.30
2008,12,03,23,00,5.30
2008,12,03,23,01,5.30
2008,12,03,23,02,5.30
2008,12,03,23,03,5.30
2008,12,03,23,04,5.30
2008,12,03,23,05,5.30
2008,12,03,23,06,5.30
2008,12,03,23,07,5.30
2008,12,03,23,08,5.30
2008,12,03,23,09,5.30
2008,12,03,23,10,5.30
2008,12,03,23,11,5.30
2008,12,03,23,12,5.20
2008,12,03,23,13,5.30
2008,12,03,23,14,5.20
2008,12,03,23,15,5.20
2008,12,03,23,16,5.20
2008,12,03,23,17,5.20
2008,12,03,23,18,5.20
2008,12,03,23,19,5.20
2008,12,03,23,20,5.10
2008,12,03,23,21,5.10
2008,12,03,23,22,5.10
2008,12,03,23,23,5.10
2008,12,03,23,24,5.10
2008,12,03,23,25,5.10
2008,12,03,23,26,5.10
2008,12,03,23,27,5.10
2008,12,03,23,28,5.10
2008,12,03,23,29,5.10
2008,12,03,23,30,5.10
2008,12,03,23,31,5.10
2008,12,03,23,32,5.10
2008,12,03,23,33,5.10
2008,12,03,23,34,5.10
2008,12,03,23,35,5.10
2008,12,03,23,36,5.10
2008,12,03,23,37,5.10
2008,12,03,23,38,5.10
2008,12,03,23,39,5.10
2008,12,03,23,40,5.10
2008,12,03,23,41,5.10
2008,12,03,23,42,5.10
2008,12,03,23,43,5.10
2008,12,03,23,44,5.10
2008,12,03,23,45,5.10
2008,12,03,23,46,5.10
2008,12,03,23,47,5.10
2008,12,03,23,48,5.10
2008,12,03,23,49,5.20
2008,12,03,23,50,5.20
2008,12,03,23,51,5.20
2008,12,03,23,52,5.20
2008,12,03,23,53,5.20
2008,12,03,23,54,5.20
2008,12,03,23,55,5.20
2008,12,03,23,56,5.20
2008,12,03,23,57,5.20
2008,12,03,23,58,5.20
2008,12,03,23,59,5.30
